| time (UTC) | temp C | wind direction | speed KPH | gust KPH | rain 1hr cm | rain 24hr cm | rain mn cm | humidity % | barometer mb |
| 20260507011606 | 13 | 164 | 0.0 | 4.8 | 0.00 | 0.00 | 0.00 | 50 | 1008.6 |
| 20260507011106 | 13 | 195 | 3.2 | 4.8 | 0.00 | 0.00 | 0.00 | 49 | 1008.4 |
| 20260507010106 | 13 | 133 | 3.2 | 4.8 | 0.00 | 0.00 | 0.00 | 48 | 1008.2 |
| 20260507005605 | 13 | 134 | 3.2 | 4.8 | 0.00 | 0.00 | 0.00 | 50 | 1008.6 |
| 20260507005106 | 13 | 190 | 3.2 | 8.0 | 0.00 | 0.00 | 0.00 | 50 | 1008.6 |
| 20260507004606 | 13 | 144 | 3.2 | 4.8 | 0.00 | 0.00 | 0.00 | 49 | 1008.5 |
| 20260507004106 | 13 | 158 | 3.2 | 4.8 | 0.00 | 0.00 | 0.00 | 49 | 1008.5 |
| 20260507003106 | 13 | 117 | 3.2 | 4.8 | 0.00 | 0.00 | 0.00 | 48 | 1008.7 |
| 20260507002606 | 13 | 134 | 3.2 | 4.8 | 0.00 | 0.00 | 0.00 | 49 | 1008.7 |
| 20260507002106 | 13 | 193 | 4.8 | 8.0 | 0.00 | 0.00 | 0.00 | 49 | 1008.9 |
| 20260507001609 | 13 | 190 | 4.8 | 8.0 | 0.00 | 0.00 | 0.00 | 48 | 1008.9 |
| 20260507001106 | 13 | 83 | 4.8 | 8.0 | 0.00 | 0.00 | 0.00 | 48 | 1009.0 |
| 20260507000608 | 13 | 100 | 4.8 | 8.0 | 0.00 | 0.00 | 0.00 | 48 | 1008.8 |
| 20260507000106 | 13 | 115 | 3.2 | 8.0 | 0.00 | 0.00 | 0.00 | 49 | 1009.0 |
| 20260506235606 | 13 | 177 | 6.4 | 9.7 | 0.00 | 0.00 | 0.00 | 49 | 1008.7 |
| 20260506235107 | 13 | 169 | 4.8 | 8.0 | 0.00 | 0.00 | 0.00 | 49 | 1009.0 |
| 20260506234606 | 13 | 194 | 4.8 | 8.0 | 0.00 | 0.00 | 0.00 | 49 | 1008.8 |
| 20260506234106 | 13 | 154 | 4.8 | 8.0 | 0.00 | 0.00 | 0.00 | 48 | 1009.0 |
| 20260506233606 | 13 | 195 | 3.2 | 9.7 | 0.00 | 0.00 | 0.00 | 48 | 1008.8 |
| 20260506232106 | 13 | 115 | 9.7 | 12.9 | 0.00 | 0.00 | 0.00 | 46 | 1008.7 |
| 20260506231606 | 14 | 116 | 8.0 | 14.5 | 0.00 | 0.00 | 0.00 | 46 | 1008.7 |
| 20260506231106 | 14 | 145 | 9.7 | 16.1 | 0.00 | 0.00 | 0.00 | 47 | 1009.1 |
| 20260506230605 | 14 | 134 | 8.0 | 14.5 | 0.00 | 0.00 | 0.00 | 47 | 1008.7 |
| 20260506225107 | 14 | 121 | 6.4 | 14.5 | 0.00 | 0.00 | 0.00 | 48 | 1008.8 |
| 20260506224605 | 14 | 135 | 9.7 | 20.9 | 0.00 | 0.00 | 0.00 | 48 | 1008.8 |
| 20260506224106 | 14 | 97 | 9.7 | 19.3 | 0.00 | 0.00 | 0.00 | 49 | 1008.5 |
| 20260506223607 | 14 | 120 | 9.7 | 24.1 | 0.00 | 0.00 | 0.00 | 50 | 1008.6 |
| 20260506222105 | 14 | 116 | 9.7 | 24.1 | 0.00 | 0.00 | 0.00 | 50 | 1008.6 |
| 20260506221605 | 14 | 117 | 11.3 | 27.4 | 0.00 | 0.00 | 0.00 | 51 | 1008.5 |
| 20260506221107 | 14 | 133 | 8.0 | 16.1 | 0.00 | 0.00 | 0.00 | 52 | 1008.5 |
| 20260506220606 | 14 | 121 | 11.3 | 22.5 | 0.00 | 0.00 | 0.00 | 52 | 1008.6 |
| 20260506215607 | 14 | 93 | 11.3 | 19.3 | 0.00 | 0.00 | 0.00 | 53 | 1008.7 |
| 20260506215106 | 14 | 103 | 9.7 | 19.3 | 0.00 | 0.00 | 0.00 | 54 | 1008.7 |
| 20260506214606 | 14 | 101 | 16.1 | 25.7 | 0.00 | 0.00 | 0.00 | 54 | 1008.6 |
| 20260506214106 | 14 | 104 | 12.9 | 24.1 | 0.00 | 0.00 | 0.00 | 53 | 1008.8 |
| 20260506212607 | 14 | 113 | 9.7 | 19.3 | 0.00 | 0.00 | 0.00 | 53 | 1008.8 |
| 20260506212106 | 14 | 109 | 9.7 | 24.1 | 0.00 | 0.00 | 0.00 | 52 | 1008.6 |
| 20260506211607 | 15 | 110 | 11.3 | 16.1 | 0.00 | 0.00 | 0.00 | 51 | 1008.6 |
| 20260506211106 | 15 | 123 | 9.7 | 19.3 | 0.00 | 0.00 | 0.00 | 50 | 1008.5 |
| 20260506205606 | 15 | 131 | 6.4 | 14.5 | 0.00 | 0.00 | 0.00 | 50 | 1008.4 |
| 20260506205106 | 15 | 121 | 9.7 | 14.5 | 0.00 | 0.00 | 0.00 | 49 | 1008.2 |
| 20260506204606 | 15 | 128 | 11.3 | 20.9 | 0.00 | 0.00 | 0.00 | 48 | 1008.3 |
| 20260506204106 | 15 | 144 | 9.7 | 14.5 | 0.00 | 0.00 | 0.00 | 49 | 1008.0 |
| 20260506203106 | 15 | 119 | 8.0 | 12.9 | 0.00 | 0.00 | 0.00 | 49 | 1008.0 |
| 20260506202606 | 15 | 136 | 8.0 | 11.3 | 0.00 | 0.00 | 0.00 | 48 | 1007.9 |
| 20260506202106 | 16 | 165 | 9.7 | 14.5 | 0.00 | 0.00 | 0.00 | 47 | 1007.7 |
| 20260506201106 | 15 | 132 | 8.0 | 12.9 | 0.00 | 0.00 | 0.00 | 47 | 1007.5 |
| 20260506200606 | 16 | 107 | 8.0 | 12.9 | 0.00 | 0.00 | 0.00 | 46 | 1007.4 |
| 20260506200106 | 16 | 149 | 8.0 | 11.3 | 0.00 | 0.00 | 0.00 | 46 | 1007.3 |
| 20260506195605 | 16 | 136 | 6.4 | 11.3 | 0.00 | 0.00 | 0.00 | 46 | 1007.3 |
| 20260506194606 | 16 | 157 | 3.2 | 9.7 | 0.00 | 0.00 | 0.00 | 47 | 1007.3 |
| 20260506194106 | 16 | 158 | 4.8 | 9.7 | 0.00 | 0.00 | 0.00 | 47 | 1007.3 |
| 20260506193106 | 16 | 149 | 3.2 | 11.3 | 0.00 | 0.00 | 0.00 | 46 | 1007.1 |
| 20260506192605 | 16 | 156 | 4.8 | 9.7 | 0.00 | 0.00 | 0.00 | 46 | 1007.0 |
| 20260506192107 | 16 | 168 | 3.2 | 8.0 | 0.00 | 0.00 | 0.00 | 46 | 1006.9 |
| 20260506191607 | 16 | 144 | 3.2 | 8.0 | 0.00 | 0.00 | 0.00 | 46 | 1006.7 |
| 20260506191107 | 16 | 173 | 3.2 | 4.8 | 0.00 | 0.00 | 0.00 | 46 | 1006.6 |
| 20260506190606 | 17 | 182 | 3.2 | 4.8 | 0.00 | 0.00 | 0.00 | 45 | 1006.5 |
| 20260506185605 | 17 | 189 | 6.4 | 9.7 | 0.00 | 0.00 | 0.00 | 44 | 1006.3 |
| 20260506185105 | 17 | 215 | 3.2 | 11.3 | 0.00 | 0.00 | 0.00 | 44 | 1006.2 |
| 20260506184605 | 18 | 188 | 6.4 | 11.3 | 0.00 | 0.00 | 0.00 | 43 | 1006.0 |
| 20260506184106 | 18 | 200 | 8.0 | 12.9 | 0.00 | 0.00 | 0.00 | 42 | 1005.7 |
| 20260506183106 | 18 | 200 | 8.0 | 16.1 | 0.00 | 0.00 | 0.00 | 41 | 1005.8 |
| 20260506182606 | 18 | 201 | 11.3 | 19.3 | 0.00 | 0.00 | 0.00 | 40 | 1005.8 |
| 20260506182105 | 19 | 210 | 11.3 | 19.3 | 0.00 | 0.00 | 0.00 | 40 | 1005.5 |
| 20260506181605 | 19 | 214 | 9.7 | 19.3 | 0.00 | 0.00 | 0.00 | 41 | 1005.6 |
| 20260506181105 | 19 | 226 | 8.0 | 16.1 | 0.00 | 0.00 | 0.00 | 41 | 1005.4 |
| 20260506180606 | 18 | 258 | 9.7 | 14.5 | 0.00 | 0.00 | 0.00 | 41 | 1005.8 |
| 20260506180106 | 18 | 267 | 6.4 | 11.3 | 0.00 | 0.00 | 0.00 | 39 | 1006.0 |
| 20260506175606 | 18 | 300 | 3.2 | 8.0 | 0.00 | 0.00 | 0.00 | 40 | 1006.0 |
| 20260506175105 | 18 | 317 | 4.8 | 9.7 | 0.00 | 0.00 | 0.00 | 40 | 1006.1 |
| 20260506174605 | 18 | 274 | 4.8 | 9.7 | 0.00 | 0.00 | 0.00 | 40 | 1006.0 |
| 20260506173607 | 18 | 268 | 4.8 | 9.7 | 0.00 | 0.00 | 0.00 | 39 | 1006.1 |
| 20260506173106 | 18 | 293 | 4.8 | 11.3 | 0.00 | 0.00 | 0.00 | 39 | 1006.0 |
| 20260506172607 | 18 | 303 | 8.0 | 11.3 | 0.00 | 0.00 | 0.00 | 38 | 1006.0 |